AirNav   Bose ProFlight Aviation Headset
 
 1566 users online  

PAGQ Big Lake Airport
Big Lake, Alaska, USA

GOING TO BIG LAKE?


FAA INFORMATION EFFECTIVE 19 JULY 2018

Location

FAA Identifier: BGQ
Lat/Long: 61-32-04.8600N / 149-48-45.1600W
61-32.081000N / 149-48.752667W
61.5346833 / -149.8125444
(estimated)
Elevation: 157.5 ft. / 48 m (estimated)
Variation: 19E (2010)
From city: 1 mile SE of BIG LAKE, AK
Time zone: UTC -8 (UTC -9 during Standard Time)
Zip code: 99652

Airport Operations

Airport use: Open to the public
Activation date: 05/1951
Control tower: no
ARTCC: ANCHORAGE CENTER
FSS: KENAI FLIGHT SERVICE STATION [907-283-8469]
NOTAMs facility: ENA (NOTAM-D service available)
Attendance: UNATNDD
Wind indicator: lighted
Segmented circle: yes
Lights: ACTVT MIRL RY 07/25 - 122.8
Beacon: white-green (lighted land airport)
Operates sunset to sunrise.

Airport Communications

CTAF: 122.8
ANCHORAGE APPROACH: 118.6
ANCHORAGE DEPARTURE: 118.6
CLASS C: 118.6
WX AWOS-3P at IYS (8 nm E): 135.25 (907-373-3801)
WX AWOS-3P at BCV (11 nm SE): 135.55 (907-688-0826)
WX AWOS-3 at FRN (17 nm S): 118.525 (907-384-0132)
WX ASOS at MRI (19 nm S): PHONE 907-271-5277

Nearby radio navigation aids

VOR radial/distance  VOR name  Freq  Var
BGQr096/4.9BIG LAKE VORTAC112.5019E
TEDr353/22.4ANCHORAGE VOR/DME113.1518E

 
NDB name  Hdg/Dist  Freq  Var  ID
CAMPBELL LAKE001/22.833816ECMQ -.-. -- --.-

Airport Services

Parking: tiedowns
Airframe service: MAJOR
Powerplant service: MAJOR

Runway Information

Runway 7/25

Dimensions: 2450 x 70 ft. / 747 x 21 m
Surface: gravel, in good condition
Runway edge lights: medium intensity
RUNWAY 7  RUNWAY 25
Latitude: 61-32.081000N61-32.081000N
Longitude: 149-49.173833W149-48.331500W
Elevation: 154.9 ft.150.9 ft.
Gradient: 0.5%0.5%
Traffic pattern: leftleft
Runway heading: 071 magnetic, 090 true251 magnetic, 270 true
Markings: NSTD, in good conditionNSTD, in good condition
Runway end identifier lights: nono
Touchdown point: yes, no lightsyes, no lights
Obstructions: 8 ft. brush, 108 ft. left and right of centerline42 ft. trees, 207 ft. left of centerline

Airport Ownership and Management from official FAA records

Ownership: Publicly-owned
Owner: ALASKA DOT&PF CENTRAL REGION
PO BOX 196900
ANCHORAGE, AK 99519-6900
Phone 907-269-0770
Manager: STEVE BANSE
289 INNER SPRING LOOP, DOT&PF CENTRAL REGION
PALMER, AK 99645
Phone 907-745-2159

Airport Operational Statistics

Aircraft based on the field: 66
Single engine airplanes: 62
Multi engine airplanes: 1
Ultralights: 3
    
Aircraft operations: avg 26/day *
84% transient general aviation
16% local general aviation
* for 12-month period ending 31 December 2015

Additional Remarks

LOW FLYING ACFT INVOF APCH TO BIG LAKE VOR.
ARPT HAS DESIGNATED TRANSIENT ACFT PARKING AVBL. TRANSIENT ACFT PARKING IS DESIGNATED WITH GREEN CONES.
BE ALERT: FROST HEAVE ON RY APRXLY 2200 FT.
RY COND NOT MONITORED; RECOMMEND VISUAL INSPECTION PRIOR TO USE.
UPDRAFT OFF OF RISING HILL ON APCH TO RY 25.
RY 07+15' ROAD PARALLEL TO RY END.
190 FT AGL LIGHTED TWR 2 NM NE OF ARPT.
BE ALERT: OCCASIONAL ULTRA LIGHT TRAFFIC.

Instrument Procedures

NOTE: All procedures below are presented as PDF files. If you need a reader for these files, you should download the free Adobe Reader.

NOT FOR NAVIGATION. Please procure official charts for flight.
FAA instrument procedures published for use from 19 July 2018 at 0901Z to 16 August 2018 at 0900Z.

 
IAPs - Instrument Approach Procedures
RNAV (GPS) RWY 07   download (218KB)
RNAV (GPS) RWY 25   download (210KB)
VOR RWY 07   download (195KB)
NOTE: Special Take-Off Minimums/Departure Procedures apply   download (148KB)

Other nearby airports with instrument procedures:

PAWS - Wasilla Airport (8 nm E)
PAUO - Willow Airport (15 nm NW)
PAFR - Bryant Army Airfield Heliport (17 nm S)
PAED - Elmendorf Air Force Base (17 nm S)
PAMR - Merrill Field Airport (19 nm S)
 
Loc | Ops | Rwys | IFR | FBO | Links
Com | Nav | Svcs | Stats | Notes

Crowley
 
Area around PAGQ (Big Lake Airport)
 
Road maps at: MapQuest Bing Google
 
Aerial photo
WARNING: Photo may not be current or correct
Aerial photo of PAGQ (Big Lake Airport)
Do you have a better or more recent aerial photo of Big Lake Airport that you would like to share? If so, please send us your photo.

 
Sectional chart

 
Airport distance calculator
Flying to Big Lake Airport? Find the distance to fly.

From to PAGQ

Sunrise and sunset
Times for 15-Aug-2018
 Local
(UTC-8)
 Zulu
(UTC)
Morning civil twilight05:1213:12
Sunrise06:0714:07
Sunset22:0006:00
Evening civil twilight22:5506:55

Current date and time
Zulu (UTC)  15-Aug-2018 14:42:29
Local (UTC-8)  15-Aug-2018 06:42:29
 
METAR
PABV 
11nm SE 
151356Z AUTO 00000KT 9SM RA OVC070 10/09 A2991 RMK AO2 SLP137 P0003 T01000094 $
PAFR 
17nm S 
151358Z AUTO 00000KT 9SM -RA OVC055 10/10 A2987 RMK AO2 SLP121 P0003 T01030097
PAED 
17nm S 
151356Z AUTO 06003KT 10SM -DZ BKN046 OVC065 11/11 A2989 RMK AO2 RAE37DZB37E45DZB51 SLP117 P0002 T01130113
PAMR 
19nm S 
151353Z 00000KT 10SM -RA FEW015 SCT050 OVC065 11/11 A2989 RMK AO2 SLP122 P0001 T01110111
PAAQ 
21nm E 
151353Z AUTO 00000KT 7SM -RA OVC044 09/09 A2989 RMK SLP124 P0004 T00940094 TSNO $ VIA AUTODIAL
PALH 
22nm S 
151353Z 01005KT 10SM FEW012 BKN055 OVC070 12/11 A2990 RMK AO2 RAE04 SLP126 P0000 T01220111
TAF
PAED 
17nm S 
151100Z 1511/1617 VRB06KT 9999 SCT020 OVC050 QNH2980INS BECMG 1522/1523 VRB06KT 9000 -SHRA SCT025 OVC040 QNH2981INS BECMG 1610/1611 VRB06KT 9000 BR SCT020 BKN035 QNH2990INS TX17/1600Z TN10/1514Z
PAAQ 
21nm E 
151324Z 1513/1612 VRB03KT P6SM -RA OVC045 FM152100 14005KT P6SM VCSH SCT045 OVC060 FM160200 15010G18KT P6SM BKN060
NOTAMs
Click for the latest NOTAMs
NOTAMs are issued by the DoD/FAA and will open in a separate window not controlled by AirNav.

 

 
 

Would you like to see your business listed on this page?

 If your business provides an interesting product or service to pilots, flight crews, aircraft, or users of the Big Lake Airport, you should consider listing it here.  To start the listing process, click on the button below
 
Add a business
 

Other Pages about Big Lake Airport

Update a link
 
Copyright © AirNav, LLC. All rights reserved. Privacy Policy  Contact